Vagar, Faroe Islands

5:45 PM WEST on July 21, 2017 (GMT +0100)
Vagar

Weather History for EKVG - July, 2017

Change the Weather History Date:

Monday, July 17, 2017

  Actual Average Record
Temperature  
Mean Temperature 52 °F -  
Max Temperature 53 °F 53 °F 78 °F (2003)
Min Temperature 50 °F 48 °F 42 °F (2012)
Degree Days  
Heating Degree Days 14    
Growing Degree Days 2 (Base 50)    
Moisture  
Dew Point 49 °F    
Average Humidity 91    
Maximum Humidity 100    
Minimum Humidity 76    
Precipitation  
Precipitation 0.00 in - - ()
Sea Level Pressure  
Sea Level Pressure 29.81 in    
Wind  
Wind Speed 22 mph ()    
Max Wind Speed 33 mph    
Max Gust Speed 46 mph    
Visibility 5.2 miles    
Events Rain    
Averages and records for this station are not official NWS values.
T = Trace of Precipitation, MM = Missing Value Source: Averaged Metar Reports

Daily Weather History Graph

Daily Weather History Graph

Search for Another Location

Airport or City:

Trip Planner

Search our weather history database for the weather conditions in past years. The results will help you decide how hot, cold, wet, or windy it might be!

Date:

Astronomy

Jul. 17, 2017 Rise Set
Actual Time 4:16 AM WEST 10:52 PM WEST
Civil Twilight 2:31 AM WEST 12:33 AM WEST
Nautical Twilight Sun does not set Sun does not set
Astronomical Twilight Sun does not set Sun does not set
Moon 12:50 AM WEST (7/17) 3:09 PM WEST (7/17)
Length of Visible Light 22h 02m
Length of Day
18h 36m
Last Quarter, 43% of the Moon is Illuminated
Jul 17
Last Quarter
Jul 23
New
Jul 30
First Quarter
Aug 7
Full
Aug 15
Last Quarter

Hourly Weather History & Observations

Time (WEST) Temp. Dew Point Humidity Pressure Visibility Wind Dir Wind Speed Gust Speed Precip Events Conditions
12:20 AM 51.8 °F 46.4 °F 82% 29.68 in 6.2 mi West 26.5 mph - N/A   Mostly Cloudy
12:50 AM 51.8 °F 46.4 °F 82% 29.68 in 6.2 mi West 27.6 mph 40.3 mph N/A   Mostly Cloudy
1:20 AM 51.8 °F 46.4 °F 82% 29.68 in 6.2 mi West 28.8 mph 41.4 mph N/A   Mostly Cloudy
1:50 AM 51.8 °F 46.4 °F 82% 29.68 in 6.2 mi West 28.8 mph - N/A   Mostly Cloudy
2:20 AM 51.8 °F 46.4 °F 82% 29.68 in 6.2 mi West 28.8 mph - N/A   Mostly Cloudy
2:50 AM 51.8 °F 44.6 °F 76% 29.68 in 6.2 mi West 28.8 mph - N/A   Mostly Cloudy
3:20 AM 51.8 °F 46.4 °F 82% 29.68 in 6.2 mi West 29.9 mph 41.4 mph N/A   Mostly Cloudy
3:50 AM 51.8 °F 46.4 °F 82% 29.68 in 6.2 mi West 33.4 mph 46.0 mph N/A   Mostly Cloudy
4:20 AM 50.0 °F 46.4 °F 87% 29.68 in 6.2 mi West 31.1 mph - N/A   Mostly Cloudy
4:50 AM 50.0 °F 46.4 °F 87% 29.71 in 6.2 mi West 29.9 mph 41.4 mph N/A   Mostly Cloudy
5:20 AM 50.0 °F 46.4 °F 87% 29.71 in 6.2 mi West 33.4 mph 46.0 mph N/A   Mostly Cloudy
5:50 AM 50.0 °F 46.4 °F 87% 29.71 in 6.2 mi West 33.4 mph 44.9 mph N/A   Mostly Cloudy
6:20 AM 50.0 °F 46.4 °F 87% 29.71 in 5.0 mi West 29.9 mph 41.4 mph N/A Rain Light Rain Showers
6:50 AM 50.0 °F 46.4 °F 87% 29.71 in 6.2 mi West 27.6 mph - N/A   Mostly Cloudy
7:20 AM 51.8 °F 46.4 °F 82% 29.74 in 6.2 mi West 28.8 mph - N/A   Mostly Cloudy
7:50 AM 51.8 °F 46.4 °F 82% 29.74 in 6.2 mi West 29.9 mph - N/A   Mostly Cloudy
8:20 AM 51.8 °F 44.6 °F 76% 29.74 in 6.2 mi West 25.3 mph - N/A   Mostly Cloudy
8:50 AM 51.8 °F 46.4 °F 82% 29.77 in 6.2 mi West 26.5 mph - N/A   Mostly Cloudy
9:20 AM 53.6 °F 46.4 °F 77% 29.77 in 6.2 mi West 24.2 mph - N/A   Mostly Cloudy
9:50 AM 53.6 °F 48.2 °F 82% 29.77 in 6.2 mi West 24.2 mph - N/A   Mostly Cloudy
10:20 AM 53.6 °F 48.2 °F 82% 29.77 in 6.2 mi West 20.7 mph - N/A   Scattered Clouds
10:50 AM 53.6 °F 48.2 °F 82% 29.80 in 6.2 mi West 23.0 mph - N/A   Mostly Cloudy
11:20 AM 53.6 °F 48.2 °F 82% 29.80 in 6.2 mi WNW 17.3 mph - N/A   Scattered Clouds
11:49 AM 53.6 °F 50.0 °F 88% 29.80 in 6.2 mi WNW 12.7 mph - N/A   Scattered Clouds
12:20 PM 51.8 °F 50.0 °F 94% 29.80 in 6.2 mi West 15.0 mph - N/A   Light Drizzle
12:50 PM 53.6 °F 50.0 °F 88% 29.83 in 6.2 mi West 18.4 mph - N/A   Mostly Cloudy
1:19 PM 53.6 °F 51.8 °F 94% 29.83 in 6.2 mi West 16.1 mph - N/A   Mostly Cloudy
1:49 PM 53.6 °F 51.8 °F 94% 29.83 in 6.2 mi West 17.3 mph - N/A   Mostly Cloudy
1:50 PM 53.6 °F 50.0 °F 88% 29.83 in 6.2 mi West 17.3 mph - N/A   Mostly Cloudy
2:21 PM 53.6 °F 51.8 °F 94% 29.86 in 3.1 mi West 17.3 mph - N/A   Mostly Cloudy
3:20 PM 51.8 °F 51.8 °F 100% 29.86 in 1.2 mi West 17.3 mph - N/A   Drizzle
3:49 PM 51.8 °F 51.8 °F 100% 29.89 in 1.2 mi West 16.1 mph - N/A   Light Drizzle
3:52 PM 51.8 °F 51.8 °F 100% 29.86 in 1.2 mi West 17.3 mph - N/A   Light Drizzle
4:20 PM 51.8 °F 51.8 °F 100% 29.89 in 3.7 mi West 19.6 mph - N/A   Light Drizzle
4:50 PM 51.8 °F 51.8 °F 100% 29.89 in 6.2 mi West 17.3 mph - N/A   Mostly Cloudy
5:20 PM 51.8 °F 51.8 °F 100% 29.89 in 6.2 mi West 19.6 mph - N/A   Mostly Cloudy
5:50 PM 51.8 °F 51.8 °F 100% 29.89 in 6.2 mi West 16.1 mph - N/A   Mostly Cloudy
6:20 PM 51.8 °F 51.8 °F 100% 29.92 in 6.2 mi West 17.3 mph - N/A   Mostly Cloudy
6:50 PM 51.8 °F 51.8 °F 100% 29.92 in 6.2 mi West 15.0 mph - N/A   Overcast
7:20 PM 51.8 °F 51.8 °F 100% 29.92 in 3.7 mi West 15.0 mph - N/A   Mostly Cloudy
7:50 PM 51.8 °F 51.8 °F 100% 29.92 in 4.3 mi West 12.7 mph - N/A   Mostly Cloudy
8:20 PM 51.8 °F 51.8 °F 100% 29.95 in 3.7 mi West 13.8 mph - N/A   Light Drizzle
8:50 PM 51.8 °F 51.8 °F 100% 29.95 in 3.1 mi West 11.5 mph - N/A Rain Light Rain Showers
9:20 PM 51.8 °F 51.8 °F 100% 29.95 in 5.0 mi WSW 11.5 mph - N/A   Mostly Cloudy
9:50 PM 51.8 °F 51.8 °F 100% 29.95 in - West 10.4 mph - N/A   Overcast
10:20 PM 51.8 °F 51.8 °F 100% 29.95 in 2.2 mi WSW 11.5 mph - N/A   Light Drizzle
10:50 PM 51.8 °F 51.8 °F 100% 29.98 in 3.1 mi WSW 13.8 mph - N/A   Light Drizzle
11:20 PM 51.8 °F 51.8 °F 100% 29.98 in 3.7 mi West 12.7 mph - N/A   Light Drizzle
11:50 PM 51.8 °F 51.8 °F 100% 29.98 in 3.1 mi WSW 12.7 mph - N/A Rain Light Rain Showers